Location: Mahannah Oil Field
(37.4664°N, 96.6003°W)
Time: 02:02:34
(UTC+00:00)

Tiros 1 despin weight - Pass Details

Date: 27 January 2021
Orbit: 593 x 642 km, 48.2° (Epoch: 25 February)

Event Time Altitude Azimuth Distance (km) Brightness Sun altitude
Rises 22:30:19 0° 298° (WNW) 2,882 ? 12.3°
Reaches altitude 10° 22:33:08 10° 314° (NW) 1,966 ? 11.8°
Maximum altitude 22:36:33 21° 4° (N) 1,386 ? 11.2°
Drops below altitude 10° 22:39:56 10° 53° (NE) 1,944 ? 10.7°
Sets 22:42:42 0° 70° (ENE) 2,838 ? 10.2°
